Le nostre stazioni meteo in Italia

Pubblicità
Il mio iltempo24.it
Lampedusa, Italia (16490): Temperatura & dewpoint: 23.06.2017 00:00:00 - 29.06.2017 00:00:00 (CEST)Lampedusa, Italia (16490): velocità del vento: 23.06.2017 00:00:00 - 29.06.2017 00:00:00 (CEST)Lampedusa, Italia (16490): direzione del vento: 23.06.2017 00:00:00 - 29.06.2017 00:00:00 (CEST)Lampedusa, Italia (16490): visibility: 23.06.2017 00:00:00 - 29.06.2017 00:00:00 (CEST)
Data & Tempo tt [°C] td [°C] ff [km/h] ff [kn] dd vv [km]
29.06.2017 00:00:00 - - - - - -
28.06.2017 23:00:00 - - - - - -
28.06.2017 22:00:00 - - - - - -
28.06.2017 21:00:00 27,0 24,0 8 4 SE 10
28.06.2017 20:00:00 27,0 25,0 13 7 ESE 10
28.06.2017 19:00:00 28,0 24,0 5 3 ESE 10
28.06.2017 18:00:00 29,0 24,0 8 4 SSO 10
28.06.2017 17:00:00 29,0 25,0 13 7 SSO 10
28.06.2017 16:00:00 29,0 24,0 11 6 SSO 10
28.06.2017 15:00:00 30,0 25,0 11 6 S 10
28.06.2017 14:00:00 28,0 24,0 11 6 S 10
28.06.2017 13:00:00 28,0 25,0 9 5 S 10
28.06.2017 12:00:00 28,0 24,0 8 4 SSE 10
28.06.2017 11:00:00 28,0 24,0 8 4 SE 10
28.06.2017 10:00:00 27,0 24,0 9 5 SE 10
28.06.2017 09:00:00 27,0 24,0 5 3 SSE 10
28.06.2017 08:00:00 27,0 23,0 8 4 SSO 10
28.06.2017 07:00:00 25,0 23,0 9 5 OSO 10
28.06.2017 06:00:00 25,0 23,0 9 5 SSO 10
28.06.2017 05:00:00 - - - - - -
28.06.2017 04:00:00 - - - - - -
28.06.2017 03:00:00 - - - - - -
28.06.2017 02:00:00 - - - - - -
28.06.2017 01:00:00 - - - - - -
28.06.2017 00:00:00 - - - - - -
27.06.2017 23:00:00 - - - - - -
27.06.2017 22:00:00 - - - - - -
27.06.2017 21:00:00 26,0 23,0 9 5 SSE 10
27.06.2017 20:00:00 27,0 23,0 8 4 SSE 10
27.06.2017 19:00:00 28,0 23,0 9 5 S 10
27.06.2017 18:00:00 28,0 24,0 21 11 SSE 10
27.06.2017 17:00:00 27,0 24,0 11 6 SE 10
27.06.2017 16:00:00 29,0 23,0 11 6 S 10
27.06.2017 15:00:00 29,0 23,0 21 11 SSE 10
27.06.2017 14:00:00 28,0 23,0 18 10 SSE 10
27.06.2017 13:00:00 28,0 23,0 18 10 SSE 10
27.06.2017 12:00:00 28,0 23,0 18 10 SSE 10
27.06.2017 11:00:00 27,0 23,0 11 6 SSE 10
27.06.2017 10:00:00 26,0 24,0 13 7 ESE 10
27.06.2017 09:00:00 26,0 23,0 11 6 ESE 10
27.06.2017 08:00:00 26,0 22,0 5 3 SSE 10
27.06.2017 07:00:00 25,0 22,0 11 6 S 10
27.06.2017 06:00:00 25,0 23,0 13 7 SSO 10
27.06.2017 05:00:00 - - - - - -
27.06.2017 04:00:00 - - - - - -
27.06.2017 03:00:00 - - - - - -
27.06.2017 02:00:00 - - - - - -
27.06.2017 01:00:00 - - - - - -
27.06.2017 00:00:00 - - - - - -
26.06.2017 23:00:00 - - - - - -
26.06.2017 22:00:00 - - - - - -
26.06.2017 21:00:00 25,0 23,0 11 6 S 10
26.06.2017 20:00:00 26,0 23,0 11 6 E 10
26.06.2017 19:00:00 27,0 22,0 11 6 S 10
26.06.2017 18:00:00 28,0 22,0 13 7 S 10
26.06.2017 17:00:00 28,0 22,0 11 6 SSO 10
26.06.2017 16:00:00 28,0 22,0 13 7 SSO 10
26.06.2017 15:00:00 27,0 24,0 11 6 S 10
26.06.2017 14:00:00 27,0 24,0 15 8 SO 10
26.06.2017 13:00:00 27,0 24,0 13 7 SO 10
26.06.2017 12:00:00 26,0 23,0 16 9 SO 10
26.06.2017 11:00:00 26,0 23,0 16 9 SO 10
26.06.2017 10:00:00 26,0 23,0 16 9 OSO 10
26.06.2017 09:00:00 25,0 23,0 16 9 SO 10
26.06.2017 08:00:00 25,0 22,0 16 9 OSO 10
26.06.2017 07:00:00 24,0 23,0 13 7 OSO 10
26.06.2017 06:00:00 24,0 22,0 15 8 OSO 10
26.06.2017 05:00:00 - - - - - -
26.06.2017 04:00:00 - - - - - -
26.06.2017 03:00:00 - - - - - -
26.06.2017 02:00:00 - - - - - -
26.06.2017 01:00:00 - - - - - -
26.06.2017 00:00:00 - - - - - -
25.06.2017 23:00:00 - - - - - -
25.06.2017 22:00:00 - - - - - -
25.06.2017 21:00:00 25,0 22,0 8 4 SSO 10
25.06.2017 20:00:00 26,0 22,0 8 4 S 10
25.06.2017 19:00:00 27,0 22,0 9 5 SO 10
25.06.2017 18:00:00 27,0 22,0 13 7 O 10
25.06.2017 17:00:00 28,0 21,0 15 8 SO 10
25.06.2017 16:00:00 28,0 20,0 15 8 OSO 10
25.06.2017 15:00:00 28,0 21,0 13 7 O 10
25.06.2017 14:00:00 28,0 21,0 9 5 SSE 10
25.06.2017 13:00:00 29,0 21,0 11 6 O 10
25.06.2017 12:00:00 28,0 21,0 11 6 O 10
25.06.2017 11:00:00 29,0 16,0 9 5 NO 10
25.06.2017 10:00:00 28,0 17,0 13 7 NO 10
25.06.2017 09:00:00 26,0 21,0 11 6 NO 10
25.06.2017 08:00:00 24,0 22,0 9 5 NO 10
25.06.2017 07:00:00 22,0 21,0 9 5 ONO 10
25.06.2017 06:00:00 22,0 21,0 8 4 ONO 10
25.06.2017 05:00:00 - - - - - -
25.06.2017 04:00:00 - - - - - -
25.06.2017 03:00:00 - - - - - -
25.06.2017 02:00:00 - - - - - -
25.06.2017 01:00:00 - - - - - -
25.06.2017 00:00:00 - - - - - -
24.06.2017 23:00:00 - - - - - -
24.06.2017 22:00:00 - - - - - -
24.06.2017 21:00:00 25,0 20,0 4 2 NNO 10
24.06.2017 20:00:00 26,0 19,0 8 4 N 10
24.06.2017 19:00:00 26,0 20,0 9 5 N 10
24.06.2017 18:00:00 27,0 20,0 13 7 N 10
24.06.2017 17:00:00 27,0 20,0 15 8 N 10
24.06.2017 16:00:00 27,0 19,0 16 9 NNO 10
24.06.2017 15:00:00 27,0 19,0 24 13 NNO 10
24.06.2017 14:00:00 27,0 20,0 16 9 NO 10
24.06.2017 13:00:00 28,0 18,0 15 8 NNO 10
24.06.2017 12:00:00 28,0 20,0 16 9 NO 10
24.06.2017 11:00:00 27,0 21,0 15 8 NO 10
24.06.2017 10:00:00 26,0 21,0 13 7 NNO 10
24.06.2017 09:00:00 26,0 22,0 21 11 NO 10
24.06.2017 08:00:00 24,0 22,0 15 8 NO 10
24.06.2017 07:00:00 24,0 21,0 13 7 NO 10
24.06.2017 06:00:00 23,0 22,0 11 6 NO 10
24.06.2017 05:00:00 - - - - - -
24.06.2017 04:00:00 - - - - - -
24.06.2017 03:00:00 - - - - - -
24.06.2017 02:00:00 - - - - - -
24.06.2017 01:00:00 - - - - - -
24.06.2017 00:00:00 - - - - - -
23.06.2017 23:00:00 - - - - - -
23.06.2017 22:00:00 - - - - - -
23.06.2017 21:00:00 25,0 19,0 5 3 O 10
23.06.2017 20:00:00 26,0 19,0 9 5 O 10
23.06.2017 19:00:00 28,0 18,0 13 7 O 10
23.06.2017 18:00:00 27,0 17,0 11 6 ENE 10
23.06.2017 17:00:00 27,0 19,0 9 5 NE 10
23.06.2017 16:00:00 27,0 18,0 15 8 OSO 10
23.06.2017 15:00:00 27,0 19,0 8 4 SO 10
23.06.2017 14:00:00 27,0 20,0 4 2 SSO 10
23.06.2017 13:00:00 27,0 21,0 5 3 ESE 10
23.06.2017 12:00:00 26,0 20,0 8 4 E 10
23.06.2017 11:00:00 26,0 21,0 4 2 E 10
23.06.2017 10:00:00 26,0 21,0 4 2 ENE 10
23.06.2017 09:00:00 24,0 21,0 9 5 SO 10
23.06.2017 08:00:00 24,0 21,0 4 2 NO 10
23.06.2017 07:00:00 22,0 21,0 4 2 NO 10
23.06.2017 06:00:00 22,0 20,0 8 4 NO 10
23.06.2017 05:00:00 - - - - - -
23.06.2017 04:00:00 - - - - - -
23.06.2017 03:00:00 - - - - - -
23.06.2017 02:00:00 - - - - - -
23.06.2017 01:00:00 - - - - - -
23.06.2017 00:00:00 - - - - - -

tt = Temperatura
td = dewpoint
ff = velocità del vento
dd = direzione del vento
vv = visibility

Stazioni seguenti

WeatherPro
AMSI
MeteoEarth